Data Macau 2022 | Pengeluaran Toto Macau Pools

Diposting pada

Data Macau 2022, Data Toto macau 2022, Pengeluaran Macau Pools4d Terlengkap

Live Draw Toto Macau

Live Toto Macau, Senin 26 September 2022
Live Draw Macau 4D
Jam 13:00 2449
Jam 16:00 7716
Jam 19:00 6974
Jam 22:00 3651
Jam 00:00 4184
Situs Resmi Live Result Toto Macau 4D 5D Tercepat Hanya Dapat Di saksikan Di website ini.
Live Toto Macau 5D
Jam 15:15 15245
Jam 21:15 09045

 

Data Toto Macau 2022

HARI 13.00 16.00 19.00 22.00 00.00
27/09/2022
26/09/2022 2449 7716 6974 3651 4184
25/09/2022 9554 6586 7221 8092 1666
24/09/2022 0136 4840 5611 4081 3025
23/09/2022 4219 1852 4653 3186 6324
22/09/2022 7583 6150 4919 4961 1129
21/09/2022 7121 9975 9830 7053 5779
20/09/2022 9390 1116 5124 9468 0896
19/09/2022 0975 3458 2553 6936 9778
18/09/2022 7156 1359 8696 0422 4629
17/09/2022 5408 1269 6650 7670 8701
16/09/2022 7342 4864 7309 9661 9229
15/09/2022 0424 6160 7786 8698 8320
14/09/2022 3118 9641 3086 3376 9535
13/09/2022 4266 8143 5277 5823 0747
12/09/2022 1530 6584 4547 0088 0929
11/09/2022 1238 4483 5051 2100 9122
10/09/2022 0466 2794 6315 7614 1470
09/09/2022 1699 3044 5242 1052 4163
08/09/2022 7152 2253 7465 7805 5318
07/09/2022 3406 5669 0312 0019 0720
06/09/2022 1126 5553 9895 8923 2276
05/09/2022 3135 8521 5991 7521 4827
04/09/2022 8594 1624 5313 8308 1772
03/09/2022 5280 4210 8488 4153 8150
02/09/2022 1300 5704 1641 3463 8999
01/09/2022 5811 6662 9169 9222 8936

Live Result Toto Macau

HARI 13.00 16.00 19.00 22.00 00.00
31/08/22 8066 7800 1182 8471 0360
30/08/22 4567 8743 7287 9668 1171
29/08/22 2265 5528 6805 9233 8329
28/08/22 7116 7677 9450 2819 1192
27/08/22 5937 3922 0946 2924 7286
26/08/22 9230 0291 6697 9706 5539
25/08/22 4880 9936 2116 1366 5369
24/08/22 8703 1412 9043 2321 5968
23/08/22 6535 4671 9282 2889 3087
22/08/22 4328 2399 2021 6027 6453
21/08/22 3960 5130 7063 8535 7567
20/08/22 5355 1657 5428 9192 6438
19/08/22 9156 8760 5360 9593 8101
18/08/22 5637 7397 8268 4444 3732
18/08/22 5637 7397 8268 4444
17/08/22 2940 3268 7462 8429
16/08/22 5319 5331 7149 8703
15/08/22 3461 0665 8492 7391
14/08/22 8829 3009 1623 5795
13/08/22 6244 0869 3977 7698
12/08/22 3788 7797 6563 2114
11/08/22 6255 7006 6974 3608
10/08/22 7923 7857 9972 9954
09/08/22 8308 4585 2912 4335
08/08/22 9456 4358 2275 8269
07/08/22 9531 5897 6783 9116
06/08/22 0295 8971 1995 5447
05/08/22 2921 0392 1858 8540
04/08/22 1333 9140 7135 1684
03/08/22 2253 2057 4588 1545
02/08/22 0389 0805 1765 4455
01/08/22 1042 0624 4036 3919

Pengeluaran toto Macau Live

HARI 13.00 16.00 19.00 22.00
31/07/2022 8987 6764 8639 1757
30/07/2022 1855 3644 9797 2102
29/07/2022 9437 7131 4867 3561
28/07/2022 9681 8315 6289 0189
27/07/2022 9349 8179 6381 9173
26/07/2022 1078 1721 7074 8776
25/07/2022 1236 8457 6759 2471
24/07/2022 7397 5346 0044 8029
23/07/2022 7752 0755 5410 2722
22/07/2022 8307 6143 9427 5368
21/07/2022 3104 9636 3590 0823
20/07/2022 8375 4030 2672 1950
19/07/2022 3604 8038 9117 5085
18/07/2022 1605 3872 6642 5913
17/07/2022 0903 8555 0638 5504
16/07/2022 7805 6108 9250 0926
15/07/2022 2748 8541 4416 6893
14/07/2022 0115 5911 3206 9800
13/07/2022 0768 3948 9624 7982
12/07/2022 8256 7021 1178 5776
11/07/2022 8778 0017 2013 6640
10/07/2022 2150 2137 7634 2202
09/07/2022 3092 4801 2331 4132
08/07/2022 0891 2450 4346 7818
07/07/2022 0518 3578 1880 1105
06/07/2022 0642 7695 0360 1457
05/07/2022 2177 7806 0251 5235
04/07/2022 8071 4790 5459 3625
03/07/2022 4076 3659 4013 9044
02/07/2022 8639 4867 9562 3919
01/07/2022 7637 6967 8975 0956

Data Keluaran Macau 4D

HARI 13.00 16.00 19.00 22.00
30/06/2022 6026 7792 1860 5212
29/06/2022 2465 1833 2108 6287
28/06/2022 4926 0512 7762 6574
27/06/2022 0261 3422 3701 9673
26/06/2022 0389 4926 6935 0043
25/06/2022 8930 0263 7372 8735
24/06/2022 3790 0015 6648 9187
23/06/2022 5149 1671 6980 3833
22/06/2022 4357 7600 6228 5695
21/06/2022 0313 8635 2312 7524
20/06/2022 6348 0227 2258 4299
19/06/2022 3488 2881 5852 2575
18/06/2022 4111 1272 7191 8590
17/06/2022 1092 1226 7596 7809
16/06/2022 5998 7777 3393 3226
15/06/2022 0575 7279 9777 0366
14/06/2022 8938 5805 0973 8338
13/06/2022 3187 4396 7918 1992
12/06/2022 8922 2757 0647 6690
11/06/2022 0201 4824 5438 0620
10/06/2022 4093 4560 4346 3865
09/06/2022 1346 6656 1951 4000
08/06/2022 1603 4574 0979 9394
07/06/2022 9752 4377 6557 2059
06/06/2022 2175 9543 9282 9575
05/06/2022 2180 6974 1222 0198
04/06/2022 0373 5209 1039 3485
03/06/2022 9411 6431 1776 3389
02/06/2022 3147 9360 7627 0769
01/06/2022 7535 2082 3305 7431

Data Toto Macau 4D

HARI 13.00 16.00 19.00 22.00
31/05/2022 8961 7187 5380 6737
30/05/2022 7147 0511 9245 2253
29/05/2022 9691 4023 0016 1421
28/05/2022 6955 7554 6051 1020
27/05/2022 9312 3746 6567 8317
26/05/2022 2558 9802 5365 7103
25/05/2022 0377 2530 0339 7215
24/05/2022 7213 5291 9525 8495
23/05/2022 2037 9669 7021 1018
22/05/2022 6942 6764 4886 0410
21/05/2022 1248 0935 7983 9554
20/05/2022 8945 4171 1726 5026
19/05/2022 4554 2495 1663 6422
18/05/2022 9422 2390 4531 1239
17/05/2022 8472 7325 0502 8333
16/05/2022 6260 3814 6867 9341
15/05/2022 4800 0389 5916 4463
14/05/2022 0610 5078 2990 9645
13/05/2022 4155 5980 2141 2477
12/05/2022 1567 3225 2667 4542
11/05/2022 5380 1545 8593 8600
10/05/2022 8357 5497 6271 6323
09/05/2022 2417 1123 4155 7172
08/05/2022 8858 9981 6844 3779
07/05/2022 3049 7047 4664 6741
06/05/2022 3665 4381 6015 8066
05/05/2022 0950 7097 9853 3120
04/05/2022 4774 5484 0828 6871
03/05/2022 2091 8286 3837 8507
02/05/2022 8133 0511 3952 0194
01/05/2022 0087 6307 0320 6202

Dewasa ini sudah ada banyak sekali pilihan situs judi online togel yang tersebar secara luas di internet. Namun tidak semua situs yang beredar tersebut dapat dipercaya. Maka dari itu, saat akan memilih situs sebagai tempat untuk bermain, maka Anda harus berhati-hati. Seleksilah dengan benar agar nantinya tidak ada kerugian yang menimpa diri Anda.

Bagi Anda semua yang saat ini sedang mencari situs judi online togel, maka Anda datang pada saat dan tempat yang tepat. Kami sangat merekomendasikan Anda semua untuk bermain pada situs judi online togel DATA MACAU. Karena ada banyak sekali keuntungan yang akan Anda dapatkan jika Anda bermain pada situs judi togel online DATA MACAU.

Kami akan senantiasa memastikan Anda puas dengan layanan yang kami berikan. Apalagi kami merupakan salah satu situs judi togel online yang sangat terpercaya. Sudah pasti kami akan memberikan beragam keuntungan kepada setiap member. Kami pastikan Anda semua akan merasa puas saat bermain togel online pada situs DATA MACAU.

Alasan Mengapa Anda Harus Memilih Situs Judi Togel Online Data Macau

Ada banyak sekali alasan mengapa Anda harus memilih situs judi togel online DATA MACAU sebagai tempat untuk bermain. Selain karena situs judi togel online DATA MACAU sudah terpercaya dan memiliki banyak sekali member aktif setiap harinya, kami juga sangat fair kepada setiap member dan tidak pernah melakukan sedikitpun kecurangan, Berikut adalah alasan mengapa Anda harus memilih situs judi togel online DATA MACAU.

Minimal Deposit Sangat Rendah

Alasan yang pertama yaitu minimal deposit sangat rendah. Untuk dapat bermain pada situs judi togel online DATA MACAU, Anda tidak perlu mengeluarkan modal yang banyak untuk bisa mendapatkan kemenangan dalam jumlah yang besar. Hanya dengan bermodalkan Rp.10.000,- saja, Anda sudah bisa bermain pada situs judi togel online. Jadi, tidak ada alasan lagi untuk tidak bermain pada situs judi togel online DATA MACAU.

Dengan minimal deposit yang sangat rendah, tentunya Anda bisa mengincar kemenangan dalam jumlah yang cukup besar. Sehingga tidak akan ada kerugian yang akan Anda dapatkan nantinya. Karena DATA MACAU memang menjadi salah satu situs judi togel online yang sangat direkomendasikan khusus bagi Anda semua yang ingin bermain judi online tanpa harus mengeluarkan modal yang besar.

Menyediakan Banyak Pilihan Metode Pembayaran

Saat ini, kami juga telah menyediakan banyak pilihan metode pembayaran. Hal ini kami lakukan untuk dapat menyesuaikan dengan kondisi Anda. Jadi saat akan melakukan deposit, Anda tidak perlu bingung lagi karena semua dapat Anda sesuaikan dengan kondisi Anda. Karena kami telah menyediakan metode pembayaran seperti : transfer bank, e-wallet, dan pulsa.

Jika Anda ingin melakukan deposit melalui transfer bank, kami telah menyediakan banyak pilihan bank yang dapat digunakan. Jika Anda tidak bisa melakukan deposit melalui transfer bank, maka Anda bisa melakukan deposit melalui e-wallet. Dan jika Anda tidak bisa melakukan deposit melalui e-wallet, Anda bisa melakukan deposit melalui pulsa.

Layanan Aktif Selama 24 Jam Non Stop

Alasan selanjutnya yaitu layanan kami aktif selama 24 jam non stop. Kapanpun Anda ingin bermain di situs kami, Anda dapat mengaksesnya kapan saja dan dimana saja. Terutama bagi Anda yang sibuk bekerja selama seharian penuh, Anda masih dapat bermain di situs judi togel online DATA MACAU pada saat malam hari.

Hal ini tentunya sangat memudahkan bagi Anda semua yang sering mempermasalahkan waktu untuk dapat bermain. Karena layanan kami aktif selama 24 jam non stop. Tentunya situs judi togel online DATA MACAU dapat menjadi pilihan yang sangat tepat untuk bermain. Jika sewaktu-waktu terjadi kendala, Anda juga bisa langsung menghubungi customer service kami.

Customer Service Yang Handal Dan Berpengalaman

Karena situs judi togel online DATA MACAU aktif selama 24 jam non stop, tentunya kami juga telah menyediakan customer service yang handal dan juga berpengalaman. Jika Anda memiliki keluhan saat bermain pada situs judi togel online DATA MACAU baik pada saat akan melakukan deposit, withdraw, maupun kendala pada saat bermain, Anda dapat langsung menghubungi customer service kami.

Customer service kami akan siap sedia untuk membantu segala jenis permasalahan yang Anda hadapi saat bermain di situs judi togel online DATA MACAU. Karena kami tidak ingin aktivitas bermain Anda menjadi terganggu hanya karena masalah-masalah serta kendala-kendala yang Anda hadapi. Kepuasan Anda adalah tujuan utama kami.

Terdapat Berbagai Macam Pilihan Permainan

DATA MACAU merupakan salah satu situs judi togel online di internet yang menyediakan berbagai macam pilihan permainan. Diantaranya : casino, poker, tembak ikan, lottery, sport, slot, dan masih banyak yang lainnya. Dengan banyaknya pilihan permainan yang kami sediakan, tentunya Anda tidak akan bosan lagi saat bermain di situs judi togel online DATA MACAU.

Karena Anda dapat memilih jenis permainan yang sesuai dengan keinginan Anda. Pilihan permainan yang kami sediakan juga memberikan rasio kemenangan yang tinggi. Jadi, apapun pilihan permainan yang Anda pilih bisa mendapatkan kemenangan dalam jumlah yang cukup besar tanpa merasakan yang namanya kecurangan.

Bagaimana, akankah Anda semua tertarik untuk bermain di situs judi togel online DATA MACAU? Jika Anda masih memiliki pertanyaan seputar situs judi togel online DATA MACAU atau Anda masih bingung bagaimana caranya mendaftar pada situs judi togel online DATA MACAU, Anda bisa langsung menghubungi customer service kami.

Anda juga bisa meminta bantuan dari customer service kami jika Anda masih bingung saat akan mendaftar. Customer service kami pastinya akan membantu Anda dengan sebaik mungkin. Setelah berhasil mendaftar pada situs kami, nantinya Anda akan mendapatkan 1 user ID yang bisa Anda gunakan untuk mencoba seluruh permainan yang ada pada situs judi togel online DATA MACAU.

Jika Anda masih ragu dengan situs kami, Anda dapat mencoba melakukan deposit minimal Rp.10.000,- saja. Jika deposit pertama yang Anda lakukan membuahkan hasil dan Anda memperoleh kemenangan dalam jumlah yang cukup besar, mak Anda bisa mencoba untuk melakukan withdraw.

Kami akan senantiasa memproses withdraw yang Anda lakukan. Karena kami memang merupakan situs judi online terpercaya yang bisa Anda coba. Berapapun nominal withdraw yang Anda lakukan, pasti akan kami proses dalam waktu yang relatif cukup cepat. Jadi jangan khawatir lagi saat bermain di situs judi togel online DATA MACAU.

Berpapun kemenangan yang Anda dapatkan pasti akan kami bayar. Karena kami sadar usaha yang Anda lakukan untuk bisa mendatkan kemenangan tidaklah mudah. Maka dari itu kami akan menghargai usaha keras Anda untuk mendapatkan kemenangan dengan tidak menunda-nunda withdraw yang Anda lakukan.